Regional Weather Roundup
Issued by NWS Boston, MA

Home | Current Version | Previous Version | Text Only | Print | Product List | Glossary On
Versions: 1 2 3 4 5 6 7 8 9 10 11 12 13 14 15 16 17 18 19 20 21 22 23 24 25 26 27 28
000
ASUS41 KBOX 190410
RWRBOX

REGIONAL WEATHER ROUNDUP
NATIONAL WEATHER SERVICE TAUNTON MA
1200 AM EDT THU OCT 19 2017

NOTE:  "FAIR" INDICATES FEW OR NO CLOUDS BELOW 12,000 FEET WITH NO
SIGNIFICANT WEATHER AND/OR OBSTRUCTIONS TO VISIBILITY.

MAZALL-190500-
EASTERN MASSACHUSETTS

CITY           SKY/WX    TMP DP  RH WIND       PRES   REMARKS
BOSTON         CLEAR     55  47  74 S8        30.26F
BEVERLY        CLEAR     47  44  90 CALM      30.25F
LAWRENCE       CLEAR     51  43  74 CALM      30.27F
BEDFORD        CLEAR     43  39  86 CALM      30.25F
BLUE HILL        N/A     56  44  64 SW10      30.26F
NORWOOD        CLEAR     41  39  93 CALM      30.27S
MARSHFIELD     CLEAR     54  52  94 W6        30.26F
PLYMOUTH       CLEAR     48  45  89 CALM      30.28F
TAUNTON        CLEAR     44  42  93 CALM      30.27F FOG
NEW BEDFORD    CLEAR     48  47  96 CALM      30.27F
$$

MAZALL-190500-
CAPE COD AND THE ISLANDS

CITY           SKY/WX    TMP DP  RH WIND       PRES   REMARKS
FALMOUTH       CLEAR     48  48 100 CALM      30.29S
HYANNIS        CLEAR     54  54 100 CALM      30.27F
CHATHAM        CLEAR     58  56  93 SW5       30.29F
PROVINCETOWN   CLEAR     56  54  93 SW7       30.28S
NANTUCKET        N/A     56  56 100 SW7       30.30S
MARTHAS VNYRD  CLEAR     46  44  93 SW5       30.29S
$$

MAZALL-190500-
CENTRAL AND WESTERN MASSACHUSETTS

CITY           SKY/WX    TMP DP  RH WIND       PRES   REMARKS
WORCESTER      CLEAR     52  43  71 W8        30.27S
FITCHBURG      CLEAR     46  44  93 CALM      30.26F
ORANGE         CLEAR     40  40 100 CALM      30.26F FOG
SPRINGFIELD    CLEAR     43  42  96 NE3       30.25F
WESTFIELD      CLEAR     45  44  97 CALM      30.26F
NORTH ADAMS    CLEAR     47  44  90 E6        30.26F
PITTSFIELD     CLEAR     44  41  89 CALM      30.25F FOG
$$

RIZALL-190500-
RHODE ISLAND

CITY           SKY/WX    TMP DP  RH WIND       PRES   REMARKS
PROVIDENCE     PTCLDY    51  49  92 SW5       30.28F
NEWPORT        CLEAR     52  52 100 CALM      30.27F
BLOCK ISLAND   CLEAR     56  55  97 SW9       30.29F
SMITHFIELD     CLEAR     47  46  97 CALM      30.27F
WESTERLY       CLEAR     49  47  93 CALM      30.29F
$$

CTZALL-190500-
CONNECTICUT

CITY           SKY/WX    TMP DP  RH WIND       PRES   REMARKS
BRADLEY INTL   CLEAR     50  47  89 CALM      30.26F
HARTFORD       CLEAR     51  49  92 S3        30.26F
BRIDGEPORT     CLEAR     55  50  83 CALM      30.27F
DANBURY        CLEAR     46  44  93 CALM      30.28F
GROTON         CLEAR     50  48  93 CALM      30.28S
NEW HAVEN      CLEAR     48  47  96 CALM      30.27F
CHESTER        FAIR      55  54  94 CALM      30.28S
MERIDEN        CLEAR     45  44  97 CALM      30.27F
WILLIMANTIC    CLEAR     46  44  93 CALM      30.28F
OXFORD         CLEAR     49  47  93 CALM      30.28F
$$

MEZ002-015-021-024-NHZ003-005-008-011-012-014-VTZ005-008-190500-
NORTHERN NEW ENGLAND

CITY           SKY/WX    TMP DP  RH WIND       PRES   REMARKS
PORTLAND ME    CLEAR     45  42  89 CALM      30.25S
BANGOR ME      CLEAR     43  35  73 S3        30.24R
CONCORD NH     CLEAR     41  39  93 NE3       30.26S
MANCHESTER NH  CLEAR     49  45  86 N5        30.24F
NASHUA NH      CLEAR     45  43  93 CALM      30.26F
PORTSMOUTH NH  PTCLDY    47  43  84 CALM      30.23F
JAFFREY NH     CLEAR     43  43 100 S3        30.27F
KEENE NH       PTCLDY    39  39 100 CALM      30.27S FOG
BURLINGTON VT  CLEAR     60  47  61 S10       30.16F
MT. WASHINGTON PTCLDY    39  28  65 SW26        N/A  WCI  28
$$

NYZ052-076-190500-
EASTERN NEW YORK

CITY           SKY/WX    TMP DP  RH WIND       PRES   REMARKS
ALBANY         CLEAR     52  45  77 S5        30.23F
NEW YORK CITY  CLEAR     64  47  53 SW8       30.27F
$$

ANZALL-190500-
MARINE OBSERVATIONS

STATION/POSITION TIME  TEMP    WIND        PRES    VSBY  WAVE
                       AIR SEA DIR/SP/G                  HT/PER
                 (UTC) (F)     (DEG/KT/KT) (MB)    (MI)  (FT/S)
BOSTON BUOY      0350   58 59  210/ 10/ 12 1024.1F         1
BUZZARDS BAY     0300   62     250/ 11/ 12 1026.0F
NANTUCKET SOUND  0350   61 62  240/ 10/ 10 1025.5F         1/10
MASS BAY-STELLWA 0304   61 60  180/  8/ 10 1023.8F         1
ISLE OF SHOALS   0300   60     190/ 13/ 13 1024.2F
S OF BLOCK IS    NOT AVBL
$$

......................KEY.........................
  SKY/WX - SKY CONDITION/PRESENT WEATHER
  TMP    - TEMPERATURE IN FAHRENHEIT
  DWPT   - DEWPOINT IN FAHRENHEIT
  RH     - RELATIVE HUMIDITY IN PERCENT
  WIND   - DIRECTION AND SPEED IN MPH
  PRES   - MEAN SEA LEVEL PRESSURE IN INCHES OF HG
  WCI    - WIND CHILL INDEX
  VSB    - VISIBILITY IN MILES
  HX     - HEAT INDEX
  TC     - TEMPERATURE IN CELSIUS
  VRB    - VARIABLE WIND DIRECTION
  N/A    - NOT AVAILABLE




USA.gov is the U.S. government's official web portal to all federal, state and local government web resources and services.